Ovda International Airport, Israel

5:53 PM IDT on August 25, 2016 (GMT +0300)
Ovda Air Base

Weather History for LLOV - October, 2012

Change the Weather History Date:

Tuesday, October 9, 2012

  Actual Average Record
Temperature  
Mean Temperature 74 °F -  
Max Temperature 86 °F 77 °F 93 °F (2011)
Min Temperature 62 °F 57 °F 59 °F (1996)
Cooling Degree Days 9    
Growing Degree Days 24 (Base 50)    
Moisture  
Dew Point 52 °F    
Average Humidity 50    
Maximum Humidity 78    
Minimum Humidity 25    
Precipitation  
Precipitation 0.00 in - - ()
Sea Level Pressure  
Sea Level Pressure 29.94 in    
Wind  
Wind Speed 4 mph ()    
Max Wind Speed 10 mph    
Max Gust Speed -    
Averages and records for this station are not official NWS values.
T = Trace of Precipitation, MM = Missing Value Source: Averaged Metar Reports

Daily Weather History Graph

Daily Weather History Graph

Search for Another Location

Airport or City:

Trip Planner

Search our weather history database for the weather conditions in past years. The results will help you decide how hot, cold, wet, or windy it might be!

Date:

Astronomy

Oct. 09, 2012 Rise Set
Actual Time 5:38 AM IST 5:16 PM IST
Civil Twilight 5:14 AM IST 5:39 PM IST
Nautical Twilight 4:46 AM IST 6:07 PM IST
Astronomical Twilight 4:18 AM IST 6:35 PM IST
Moon No Moon Rise 1:06 PM IST (10/9)
Length of Visible Light 12h 25m
Length of Day
11h 37m
Last Quarter, 39% of the Moon is Illuminated
Oct 9
Last Quarter
Oct 15
New
Oct 22
First Quarter
Oct 29
Full
Nov 7
Last Quarter

Hourly Weather History & Observations

Time (IST) Temp. Dew Point Humidity Pressure Visibility Wind Dir Wind Speed Gust Speed Precip Events Conditions
12:50 AM 68.0 °F 57.2 °F 68% 29.98 in - NNE 6.9 mph - N/A   Clear
1:50 AM 66.2 °F 59.0 °F 78% 29.98 in - North 3.5 mph - N/A   Clear
2:50 AM 66.2 °F 57.2 °F 73% 29.98 in - Variable 2.3 mph - N/A   Clear
3:50 AM 66.2 °F 57.2 °F 73% 29.98 in - Variable 2.3 mph - N/A   Clear
4:50 AM 64.4 °F 57.2 °F 77% 29.98 in - Variable 1.2 mph - N/A   Clear
5:50 AM 62.6 °F 55.4 °F 77% 29.98 in - SW 3.5 mph - N/A   Clear
6:50 AM 64.4 °F 55.4 °F 73% 29.98 in - SW 3.5 mph - N/A   Clear
7:50 AM 69.8 °F 59.0 °F 68% 29.98 in - Variable 1.2 mph - N/A   Clear
8:50 AM 73.4 °F 59.0 °F 61% 29.98 in - NE 3.5 mph - N/A   Clear
9:50 AM 77.0 °F 55.4 °F 47% 29.98 in - NNE 8.1 mph - N/A   Clear
10:50 AM 78.8 °F 51.8 °F 39% 29.95 in - NE 6.9 mph - N/A   Clear
11:50 AM 82.4 °F 50.0 °F 32% 29.92 in - North 5.8 mph - N/A   Clear
12:50 PM 86.0 °F 48.2 °F 27% 29.92 in - ENE 5.8 mph - N/A   Clear
1:50 PM 84.2 °F 48.2 °F 29% 29.89 in - NE 6.9 mph - N/A   Clear
2:50 PM 84.2 °F 46.4 °F 27% 29.89 in - ENE 4.6 mph - N/A   Clear
3:50 PM 86.0 °F 46.4 °F 25% 29.89 in - North 4.6 mph - N/A   Clear
4:50 PM 84.2 °F 46.4 °F 27% 29.89 in - NE 8.1 mph - N/A   Clear
5:50 PM 80.6 °F 46.4 °F 30% 29.89 in - NE 8.1 mph - N/A   Clear
6:50 PM 78.8 °F 46.4 °F 32% 29.92 in - North 8.1 mph - N/A   Clear
7:50 PM 77.0 °F 46.4 °F 34% 29.92 in - North 6.9 mph - N/A   Clear
8:50 PM 75.2 °F 53.6 °F 47% 29.92 in - North 10.4 mph - N/A   Clear
9:50 PM 73.4 °F 53.6 °F 50% 29.92 in - North 10.4 mph - N/A   Clear
10:50 PM 71.6 °F 51.8 °F 50% 29.92 in - NNE 4.6 mph - N/A   Clear
11:50 PM 68.0 °F 51.8 °F 56% 29.92 in - Variable 1.2 mph - N/A   Clear